This is the latest recevied weather packets stored in our database for station/object DG1ROH. If no packets are shown the sender has not sent any weather packets the latest 10 day(s).
| Time | Temp. | Humidity | Pressure | Rain* | Wind** | Luminosity | Snow |
|---|---|---|---|---|---|---|---|
| 1777644827 | 23.33° C | 32% | 1026 hPa | 0 mm | - | 529 W/m² | - |
| 1777644707 | 23.33° C | 32% | 1026 hPa | 0 mm | - | 526 W/m² | - |
| 1777644587 | 23.89° C | 33% | 1026.1 hPa | 0 mm | - | 531 W/m² | - |
| 1777644467 | 23.89° C | 32% | 1026 hPa | 0 mm | - | 540 W/m² | - |
| 1777644345 | 23.89° C | 31% | 1026 hPa | 0 mm | - | 561 W/m² | - |
| 1777644226 | 23.89° C | 30% | 1026 hPa | 0 mm | - | 561 W/m² | - |
| 1777644105 | 23.89° C | 32% | 1026.1 hPa | 0 mm | - | 566 W/m² | - |
| 1777643985 | 23.89° C | 31% | 1026.1 hPa | 0 mm | - | 573 W/m² | - |
| 1777643865 | 23.89° C | 33% | 1026.2 hPa | 0 mm | - | 575 W/m² | - |
| 1777643745 | 23.33° C | 31% | 1026.1 hPa | 0 mm | - | 578 W/m² | - |
| 1777643623 | 23.33° C | 29% | 1026.1 hPa | 0 mm | - | 584 W/m² | - |
| 1777643504 | 23.89° C | 30% | 1026.1 hPa | 0 mm | - | 585 W/m² | - |
| 1777643383 | 23.89° C | 29% | 1026.2 hPa | 0 mm | - | 591 W/m² | - |
| 1777643261 | 23.89° C | 31% | 1026.2 hPa | 0 mm | - | 594 W/m² | - |
| 1777643142 | 23.89° C | 31% | 1026.2 hPa | 0 mm | - | 598 W/m² | - |
| 1777643021 | 23.89° C | 31% | 1026.2 hPa | 0 mm | - | 601 W/m² | - |
| 1777642904 | 24.44° C | 30% | 1026.3 hPa | 0 mm | - | 603 W/m² | - |
| 1777642782 | 23.89° C | 33% | 1026.2 hPa | 0 mm | - | 605 W/m² | - |
| 1777642661 | 23.89° C | 31% | 1026.2 hPa | 0 mm | - | 598 W/m² | - |
| 1777642536 | 23.89° C | 32% | 1026.3 hPa | 0 mm | - | 599 W/m² | - |
| 1777642412 | 23.33° C | 31% | 1026.3 hPa | 0 mm | - | 612 W/m² | - |
| 1777642292 | 23.33° C | 33% | 1026.4 hPa | 0 mm | - | 617 W/m² | - |
| 1777642173 | 23.33° C | 34% | 1026.4 hPa | 0 mm | - | 617 W/m² | - |
| 1777642052 | 23.33° C | 34% | 1026.3 hPa | 0 mm | - | 621 W/m² | - |
| 1777641928 | 23.33° C | 36% | 1026.4 hPa | 0 mm | - | 624 W/m² | - |
* Rain latest hour (hover to see other rain measurements)
** Current wind speed in m/s (hover to see current wind gust speed)